Weather Roundup
Issued by NWS Chicago, IL

Home | Current Version | Previous Version | Graphics & Text | Print | Product List | Glossary On
Versions: 1 2 3 4 5 6 7 8 9 10 11 12 13 14 15 16 17 18 19 20 21 22 23 24 25 26 27 28 29 30 31 32 33 34 35 36 37 38 39 40 41 42 43 44 45 46 47 48 49 50
000
NZUS59 KLOT 032321
HRRLOT

CHICAGO AREA WEATHER ROUNDUP
NATIONAL WEATHER SERVICE CHICAGO/ROMEOVILLE IL
600 PM CDT MON AUG 03 2015

NOTE: "FAIR" INDICATES FEW OR NO CLOUDS BELOW 12,000 FEET WITH NO
SIGNIFICANT WEATHER AND/OR OBSTRUCTIONS TO VISIBILITY.

* THESE STATIONS ARE NOT UNDER NWS QUALITY CONTROL. THEY ALSO MAY NOT
  REPORT WEATHER SUCH AS PRECIPITATION OR FOG.

ILZ005-006-012>014-019>023-040000-
NORTHEAST ILLINOIS

CITY           SKY/WX    TMP DP  RH WIND       PRES   REMARKS
OHARE          MOSUNNY   79  49  34 W14       29.85S
MIDWAY         MOSUNNY   82  49  31 W15G22    29.85S HX  81
AURORA         SUNNY     79  54  41 W6        29.88S
LANSING*       SUNNY     80  48  32 NW12      29.86S
JOLIET*        SUNNY     82  51  34 W8G17     29.88R HX  81
WAUKEGAN       SUNNY     78  50  37 W9        29.84S
DUPAGE AIRPORT SUNNY     79  49  34 W13       29.87R
WHEELING       SUNNY     80  48  32 NW15      29.86S
KANKAKEE*      SUNNY     81  53  37 NW9       29.88R HX  80
MORRIS*        SUNNY     79  53  41 NW10G17   29.87S
LEWIS AIRPORT* SUNNY     78  49  35 W10       29.87S
NORTHERLY IS     N/A     81  43  26 W9          N/A
$$

WIZ051-052-058>065-066-070>072-040000-
SOUTHEAST WISCONSIN

CITY           SKY/WX    TMP DP  RH WIND       PRES   REMARKS
MILWAUKEE      MOSUNNY   81  48  31 NW12      29.84R HX  80
KENOSHA*       SUNNY     78  53  41 W12       29.85S
RACINE*        MOSUNNY   80  49  33 W12       29.85S
BURLINGTON     SUNNY     77  47  34 NW9       29.86S
WAUKESHA       MOSUNNY   77  46  33 W17G29    29.86R
WEST BEND      PTSUNNY   75  45  33 W10G18    29.84R
$$

INZ001>003-010>013-019-020-040000-
NORTHWEST INDIANA

CITY           SKY/WX    TMP DP  RH WIND       PRES   REMARKS
GARY*          SUNNY     79  50  36 NE8       29.86S
MICHIGAN CITY* NOT AVBL
RENSSELAER*    NOT AVBL
VALPARAISO     SUNNY     78  53  41 N5        29.87R
$$

LMZ740>746-040000-
SOUTHERN LAKE MICHIGAN

STATION/POSITION TIME  SKY/WX   TEMP WIND        PRES    VSBY
                                AIR  DIR/SP/G
                 (UTC)          (F)  (DEG/KT/KT) (MB)    (MI)
HARRISON CRIB    2300            79  290/ 12/ 17   N/A
BURNHAM HARBOR   2300            81  310/  8/ 17   N/A
CALUMET HARBOR   2200            75   90/  7/ 10   N/A
BURNS HARBOR     2200            76   40/  4/  6 1011.5S
MICHIGAN CITY    2300            77  360/  2/  3   N/A
$$

ABBREVIATIONS USED IN REMARKS
   TC - TEMPERATURE IN CELSIUS
  WCI - WIND CHILL INDEX
   HX - HEAT INDEX
  VSB - VISIBILITY
$$


USA.gov is the U.S. government's official web portal to all federal, state and local government web resources and services.